This demonstration page uses our WeatherBlox Daily Observations layout. Learn more.

Left ArrowRight Arrow

41.55636, -103.73856

Hourly Observations for June 20, 2021

Temp ( °F °C ) Dew Point ( °F °C ) Humidity (%) Winds ( mph kmh ) Pressure ( in mb ) Visibility ( mi km ) Precip ( " mm )
12:58 am 00:58 Clear 62 16.6 51 10.8 69 69 SSW 25 41 29.59 1002 10 16 N/A
1:58 am 01:58 Clear 61 16 52 11.2 73 73 SW 20 31 29.61 1003 10 16 N/A
2:58 am 02:58 Clear 63 17.3 49 9.6 61 61 W 10 17 29.63 1003 10 16 N/A
3:58 am 03:58 Clear 63 17.3 49 9.4 60 60 W 10 17 29.63 1003 10 16 N/A
4:58 am 04:58 Clear 60 15.5 47 8.3 62 62 NW 13 20 29.67 1005 10 16 N/A
5:58 am 05:58 Sunny 57 13.8 49 9.5 75 75 NNW 12 19 29.75 1008 10 16 N/A
6:58 am 06:58 Sunny 63 17.1 48 8.8 58 58 N 10 17 29.81 1009 10 16 N/A
7:58 am 07:58 Sunny 66 18.7 44 6.5 45 45 NNW 14 22 29.82 1010 10 16 N/A
8:58 am 08:58 Sunny 69 20.6 42 5.3 37 37 N 13 20 29.82 1010 10 16 N/A
9:58 am 09:58 Sunny 71 21.8 42 5.7 35 35 N 17 28 29.81 1010 10 16 N/A
10:58 am 10:58 Sunny 74 23.5 41 4.9 30 30 N 20 31 29.81 1010 10 16 N/A
11:58 am 11:58 Sunny 76 24.5 40 4.3 27 27 NNE 20 31 29.80 1009 10 16 N/A
12:58 pm 12:58 Sunny 78 25.5 40 4.5 26 26 NNE 15 24 29.81 1010 10 16 N/A
1:58 pm 13:58 Sunny 79 25.9 40 4.2 25 25 NNE 16 26 29.81 1010 10 16 N/A
2:58 pm 14:58 Partly Cloudy 80 26.6 41 5.1 25 25 NNE 23 37 29.83 1010 10 16 N/A
3:58 pm 15:58 Mostly Sunny 78 25.5 40 4.6 26 26 N 15 24 29.85 1011 10 16 N/A
4:58 pm 16:58 Partly Cloudy 75 23.8 42 5.3 30 30 N 18 30 29.88 1012 10 16 N/A
5:58 pm 17:58 Mostly Cloudy 70 21.1 46 7.7 42 42 NE 20 31 29.93 1013 10 16 N/A
6:58 pm 18:58 Mostly Cloudy 67 19.3 46 7.7 47 47 NE 16 26 29.96 1015 10 16 N/A
7:58 pm 19:58 Mostly Cloudy 61 16 49 9.5 66 66 NE 21 33 29.98 1015 10 16 N/A
8:58 pm 20:58 Mostly Cloudy 56 13.6 53 11.5 87 87 E 9 15 30.02 1017 10 16 0.13 3.30
9:58 pm 21:58 Mostly Cloudy with Showers 55 13 52 10.9 87 87 NW 9 15 30.14 1021 10 16 0.14 3.56
10:58 pm 22:58 Mostly Cloudy with Showers 54 12.3 51 10.7 90 90 W 5 7 30.13 1020 6 10 0.16 4.06
11:58 pm 23:58 Mostly Cloudy with Rain 53 11.8 51 10.6 92 92 NNE 8 13 30.09 1019 9 14 0.20 5.08

Powered by AerisWeather